George, South Africa

12:38 AM SAST on March 30, 2017 (GMT +0200)
George

Weather History for FAGG - May, 2012

Change the Weather History Date:

Thursday, May 31, 2012

  Actual Average Record
Temperature  
Mean Temperature 54 °F -  
Max Temperature 64 °F 65 °F 85 °F (2016)
Min Temperature 43 °F 45 °F 39 °F (2002)
Degree Days  
Heating Degree Days 12    
Growing Degree Days 4 (Base 50)    
Moisture  
Dew Point 49 °F    
Average Humidity 86    
Maximum Humidity 100    
Minimum Humidity 48    
Precipitation  
Precipitation 0.00 in - - ()
Sea Level Pressure  
Sea Level Pressure 30.35 in    
Wind  
Wind Speed 4 mph ()    
Max Wind Speed 10 mph    
Max Gust Speed -    
Visibility 7.0 miles    
Events Fog    
Averages and records for this station are not official NWS values.
T = Trace of Precipitation, MM = Missing Value Source: Averaged Metar Reports

Daily Weather History Graph

Daily Weather History Graph

Search for Another Location

Airport or City:

Trip Planner

Search our weather history database for the weather conditions in past years. The results will help you decide how hot, cold, wet, or windy it might be!

Date:

Astronomy

May. 31, 2012 Rise Set
Actual Time 7:26 AM SAST 5:29 PM SAST
Civil Twilight 6:59 AM SAST 5:56 PM SAST
Nautical Twilight 6:28 AM SAST 6:27 PM SAST
Astronomical Twilight 5:58 AM SAST 6:57 PM SAST
Moon 2:17 PM SAST (5/31) 2:37 AM SAST (5/31)
Length of Visible Light 10h 57m
Length of Day
10h 02m
Waxing Gibbous, 77% of the Moon is Illuminated
May 31
Waxing Gibbous
Jun 4
Full
Jun 11
Last Quarter
Jun 19
New
Jun 27
First Quarter

Hourly Weather History & Observations

Time (SAST) Temp. Windchill Dew Point Humidity Pressure Visibility Wind Dir Wind Speed Gust Speed Precip Events Conditions
12:00 AM 50.0 °F - 50.0 °F 100% 30.45 in - NNE 4.6 mph - N/A   Clear
1:00 AM 50.0 °F - 48.2 °F 94% 30.42 in - NNW 3.5 mph - N/A   Clear
2:00 AM 48 °F - 46 °F 91% 30.45 in 12 mi North 4.6 mph - -  
2:00 AM 48.2 °F - 46.4 °F 93% 30.42 in - North 4.6 mph - N/A   Clear
3:00 AM 48.2 °F - 46.4 °F 93% 30.42 in - North 3.5 mph - N/A   Clear
4:00 AM 46.4 °F 43.5 °F 44.6 °F 93% 30.39 in - NNE 5.8 mph - N/A   Clear
5:00 AM 46 °F - 44 °F 89% 30.41 in 12 mi NW 3.5 mph - -  
5:00 AM 46.4 °F 45.2 °F 44.6 °F 93% 30.39 in - NW 3.5 mph - N/A   Clear
6:00 AM 44.6 °F - 42.8 °F 93% 30.39 in - NNW 2.3 mph - N/A   Clear
7:00 AM 44.6 °F - 44.6 °F 100% 30.39 in - NNW 2.3 mph - N/A   Clear
8:00 AM 44 °F - 42 °F 91% 30.41 in 12 mi NE 4.6 mph - -  
8:00 AM 44.6 °F 42.2 °F 42.8 °F 93% 30.39 in - NE 4.6 mph - N/A   Clear
9:00 AM 50.0 °F - 48.2 °F 94% 30.39 in - WNW 2.3 mph - N/A   Clear
10:00 AM 57.2 °F - 50.0 °F 77% 30.39 in - Variable 2.3 mph - N/A   Clear
11:00 AM 61 °F - 52 °F 63% 30.38 in 12 mi East 6.9 mph - -  
11:00 AM 60.8 °F - 51.8 °F 72% 30.36 in - East 6.9 mph - N/A   Clear
12:00 PM 62.6 °F - 50.0 °F 63% 30.33 in - ESE 10.4 mph - N/A   Clear
1:00 PM 62.6 °F - 50.0 °F 63% 30.30 in - SE 6.9 mph - N/A   Clear
2:00 PM 64 °F - 49 °F 48% 30.29 in 12 mi ESE 5.8 mph - -  
2:00 PM 64.4 °F - 50.0 °F 59% 30.27 in - ESE 5.8 mph - N/A   Clear
3:00 PM 62.6 °F - 51.8 °F 68% 30.24 in - ESE 8.1 mph - N/A   Clear
4:00 PM 62.6 °F - 53.6 °F 72% 30.24 in - ESE 8.1 mph - N/A   Clear
5:00 PM 58 °F - 55 °F 85% 30.28 in 12 mi SSE 5.8 mph - -   Scattered Clouds
5:00 PM 57.2 °F - 55.4 °F 94% 30.27 in 6.2 mi SSE 5.8 mph - N/A   Partly Cloudy
6:00 PM 53.6 °F - 53.6 °F 100% 30.27 in 5.6 mi ENE 5.8 mph - N/A   Clear
7:00 PM 51.8 °F - 51.8 °F 100% 30.30 in 3.7 mi SSE 5.8 mph - N/A   Clear
8:00 PM 49 °F - 49 °F 100% 30.34 in 2 mi NW 3.5 mph - -   Mist
8:00 PM 50.0 °F - 50.0 °F 100% 30.33 in 1.6 mi NW 3.5 mph - N/A   Scattered Clouds
9:00 PM 50.0 °F - 50.0 °F 100% 30.30 in 5.0 mi NW 3.5 mph - N/A   Unknown
10:00 PM 48.2 °F - 48.2 °F 100% 30.33 in 0.2 mi WNW 5.8 mph - N/A Fog Fog
11:00 PM 51.8 °F - 51.8 °F 100% 30.33 in 1.3 mi NNW 5.8 mph - N/A Fog Fog